Butte, MT

7:15 PM MST on February 27, 2017 (GMT -0700)
Mooney

Weather History for KBTM - March, 2012

Change the Weather History Date:

Thursday, March 1, 2012

  Actual Average Record
Temperature  
Mean Temperature 18 °F 26 °F  
Max Temperature 28 °F 39 °F 58 °F (1901)
Min Temperature 8 °F 13 °F -22 °F (1976)
Degree Days  
Heating Degree Days 47 39  
Month to date heating degree days 47 39  
Since 1 July heating degree days 6187 6608  
Cooling Degree Days 0 0  
Month to date cooling degree days 0 0  
Year to date cooling degree days 0 0  
Moisture  
Dew Point 10 °F    
Average Humidity 63    
Maximum Humidity 88    
Minimum Humidity 38    
Precipitation  
Precipitation 0.03 in 0.02 in 0.40 in (1904)
Month to date precipitation 0.03 0.02  
Year to date precipitation 0.30 0.92  
Sea Level Pressure  
Sea Level Pressure 29.86 in    
Wind  
Wind Speed 5 mph (NNW)    
Max Wind Speed 22 mph    
Max Gust Speed 28 mph    
Visibility 7 miles    
Events Fog , Snow    
T = Trace of Precipitation, MM = Missing Value Source: NWS Daily Summary

Daily Weather History Graph

Daily Weather History Graph

Search for Another Location

Airport or City:

Trip Planner

Search our weather history database for the weather conditions in past years. The results will help you decide how hot, cold, wet, or windy it might be!

Date:

Astronomy

Mar. 01, 2012 Rise Set
Actual Time 7:07 AM MST 6:17 PM MST
Civil Twilight 6:37 AM MST 6:47 PM MST
Nautical Twilight 6:03 AM MST 7:21 PM MST
Astronomical Twilight 5:28 AM MST 7:56 PM MST
Moon 11:25 AM MST (3/1) 2:24 AM MST (3/1)
Length of Visible Light 12h 09m
Length of Day
11h 09m
First Quarter, 57% of the Moon is Illuminated
Mar 1
First Quarter
Mar 8
Full
Mar 14
Last Quarter
Mar 22
New
Mar 30
First Quarter

Hourly Weather History & Observations

Time (MST) Temp. Windchill Dew Point Humidity Pressure Visibility Wind Dir Wind Speed Gust Speed Precip Events Conditions
12:53 AM 12.9 °F 1.6 °F 5.0 °F 71% 29.81 in 10.0 mi SSE 8.1 mph - N/A   Clear
1:53 AM 12.9 °F - 5.0 °F 71% 29.83 in 10.0 mi Calm Calm - N/A   Mostly Cloudy
2:53 AM 12.9 °F - 6.1 °F 74% 29.85 in 10.0 mi Calm Calm - N/A   Overcast
3:53 AM 12.9 °F 3.8 °F 5.0 °F 71% 29.84 in 10.0 mi Variable 5.8 mph - N/A   Overcast
4:53 AM 12.9 °F - 5.0 °F 71% 29.83 in 10.0 mi Calm Calm - N/A   Mostly Cloudy
5:53 AM 12.0 °F - 3.9 °F 70% 29.83 in 10.0 mi Calm Calm - N/A   Clear
6:53 AM 10.0 °F 3.6 °F 3.0 °F 73% 29.84 in 10.0 mi ESE 3.5 mph - N/A   Clear
7:53 AM 10.0 °F - 3.0 °F 73% 29.84 in 10.0 mi Calm Calm - N/A   Mostly Cloudy
8:53 AM 15.1 °F - 7.0 °F 70% 29.83 in 10.0 mi Calm Calm - N/A   Overcast
9:53 AM 19.0 °F - 7.0 °F 59% 29.82 in 10.0 mi Calm Calm - N/A   Overcast
10:53 AM 25.0 °F 20.7 °F 8.1 °F 49% 29.81 in 10.0 mi NNE 3.5 mph - N/A   Mostly Cloudy
11:53 AM 27.0 °F 17.3 °F 9.0 °F 47% 29.80 in 10.0 mi WSW 10.4 mph 16.1 mph N/A   Overcast
12:53 PM 26.1 °F 12.3 °F 10.9 °F 53% 29.80 in 10.0 mi NNW 19.6 mph 26.5 mph N/A   Scattered Clouds
1:47 PM 23.0 °F 8.7 °F 12.2 °F 63% 29.66 in 1.8 mi WNW 18.4 mph 26.5 mph 0.00 in Snow Light Snow
1:53 PM 21.9 °F 9.2 °F 12.9 °F 68% 29.84 in 1.0 mi NW 13.8 mph 25.3 mph 0.00 in Snow Light Snow
2:02 PM 23.0 °F 10.6 °F 12.2 °F 63% 29.67 in 3.0 mi NW 13.8 mph - 0.00 in Snow Light Snow
2:53 PM 24.1 °F 18.2 °F 12.0 °F 60% 29.86 in 10.0 mi NNW 4.6 mph - 0.00 in   Scattered Clouds
3:53 PM 27.0 °F 17.3 °F 5.0 °F 39% 29.86 in 10.0 mi WNW 10.4 mph - N/A   Clear
4:53 PM 26.1 °F 15.0 °F 8.1 °F 47% 29.89 in 10.0 mi NNW 12.7 mph 20.7 mph N/A   Clear
5:19 PM 21.2 °F 10.9 °F 14.0 °F 74% 29.76 in 1.8 mi NNW 9.2 mph 19.6 mph 0.00 in Snow Light Snow
5:32 PM 23.0 °F 11.1 °F 14.0 °F 68% 29.77 in 3.0 mi North 12.7 mph 18.4 mph 0.00 in Snow Light Snow
5:53 PM 21.0 °F 14.6 °F 15.1 °F 78% 29.96 in 9.0 mi North 4.6 mph - 0.00 in   Overcast
6:53 PM 19.9 °F - 14.0 °F 78% 30.01 in 10.0 mi Calm Calm - 0.00 in   Clear
7:53 PM 17.1 °F 11.7 °F 12.9 °F 84% 30.04 in 10.0 mi SSW 3.5 mph - N/A   Mostly Cloudy
8:15 PM 19.4 °F 10.4 °F 15.8 °F 86% 29.84 in 2.5 mi NNW 6.9 mph - 0.00 in Snow Light Snow
8:20 PM 19.4 °F 12.8 °F 15.8 °F 86% 29.84 in 0.8 mi North 4.6 mph - 0.00 in Snow Light Snow
8:29 PM 19.4 °F 9.5 °F 15.8 °F 86% 29.85 in 0.8 mi NNW 8.1 mph - 0.01 in Snow Light Snow
8:41 PM 19.4 °F - 17.6 °F 93% 29.84 in 0.5 mi Calm Calm - 0.02 in Fog , Snow Snow
8:53 PM 19.0 °F 12.3 °F 15.1 °F 85% 30.04 in 2.0 mi NE 4.6 mph - 0.03 in Snow Light Snow
8:57 PM 19.4 °F - 15.8 °F 86% 29.85 in 7.0 mi Calm Calm - 0.00 in   Overcast
9:53 PM 16.0 °F 8.8 °F 12.9 °F 88% 30.06 in 10.0 mi SW 4.6 mph - 0.00 in   Scattered Clouds
10:53 PM 14.0 °F 5.1 °F 10.9 °F 88% 30.07 in 10.0 mi North 5.8 mph - N/A   Mostly Cloudy
11:53 PM 14.0 °F 6.5 °F 10.9 °F 88% 30.08 in 10.0 mi WNW 4.6 mph - N/A   Partly Cloudy